Regional Weather Roundup
Issued by NWS Cleveland, OH

Home | Current Version | Previous Version | Graphics & Text | Print | Product List | Glossary On
Versions: 1 2 3 4 5 6 7 8 9 10 11 12 13 14 15 16 17 18 19 20 21 22 23 24 25 26 27 28 29 30 31 32 33 34 35 36 37 38 39 40 41 42 43 44 45 46 47 48 49 50
000
ASUS41 KCLE 200402
RWRCLE
OHIO REGIONAL WEATHER ROUNDUP
NATIONAL WEATHER SERVICE CLEVELAND, OH
1200 AM EDT SAT SEP 20 2014

NOTE: "FAIR" INDICATES FEW OR NO CLOUDS BELOW 12,000 FEET WITH NO
SIGNIFICANT WEATHER AND/OR OBSTRUCTIONS TO VISIBILITY.

OHZ001>008-015>018-024>027-034-035-043-044-200500-
   NORTHWEST OHIO

CITY           SKY/WX    TMP DP  RH WIND       PRES   REMARKS
DEFIANCE       PTCLDY    53  48  83 CALM      30.06F
FINDLAY        PTCLDY    54  46  74 S7        30.07F
TOLEDO EXPRESS MOCLDY    51  49  92 CALM      30.06F
TOLEDO EXEC    PTCLDY    54  49  83 S5        30.07F
LIMA           CLEAR     55  47  74 S6        30.08F
$$

OHZ009>014-019>023-028>033-038-089-200500-
   NORTHEAST OHIO

CITY           SKY/WX    TMP DP  RH WIND       PRES   REMARKS
CLE-HOPKINS    PTCLDY    55  51  86 S3        30.10F
CLE-LAKEFRONT  PTCLDY    61  52  72 S8        30.07F
CUY CO. ARPT   NOT AVBL
LORAIN-ELYRIA  PTCLDY    55  50  83 S3        30.09F
ASHTABULA      PTCLDY    55  53  93 S7        30.11S
AKRON-CANTON   PTCLDY    62  55  77 S9        30.11S
WOOSTER        PTCLDY    50  47  89 CALM      30.11S
MANSFIELD      PTCLDY    55  50  83 S6        30.10F
YOUNGSTOWN     PTCLDY    61  55  81 S10       30.11S
$$

OHZ042-051>053-060>062-070>072-077>081-200500-
  SOUTHWEST OHIO

CITY           SKY/WX    TMP DP  RH WIND       PRES   REMARKS
CINC-COVINGTON PTCLDY    58  52  80 CALM      30.09S
CINC-LUNKEN    CLEAR     55  54  96 CALM      30.10S
HAMILTON       CLEAR     52  51  97 CALM      30.10S
DAYTON         PTCLDY    61  49  64 SE7       30.10F
WRIGHT-PAT AFB CLEAR     56  52  85 E1        30.09F
DAYTON GENERAL CLEAR     61  51  70 CALM      30.09S
WILMINGTON     CLEAR     54  50  86 SE3       30.10S
$$

OHZ036-037-039>041-045>050-054>059-063>069-073>076-082>088-200500-
  CENTRAL AND SOUTHEAST OHIO

CITY           SKY/WX    TMP DP  RH WIND       PRES   REMARKS
COLUMBUS       PTCLDY    64  52  64 CALM      30.09S
OSU AIRPORT    CLEAR     57  50  77 CALM      30.09F
BOLTON FIELD   CLEAR     51  50  96 CALM      30.10S
RICKENBACK AFB CLEAR     57  52  82 CALM      30.09S
NEWARK         CLEAR     52  50  93 CALM      30.10S FOG
MARION         CLEAR     53  48  83 S5        30.09S
LANCASTER      PTCLDY    55  52  89 SE3       30.10F
ZANESVILLE     CLEAR     63  57  81 S9        30.11F
NEW PHILLY     CLEAR     58  56  93 SE6       30.12S
$$



USA.gov is the U.S. government's official web portal to all federal, state and local government web resources and services.